CZ-6A DEB, 60690

Orbit data source: Space-Track

CZ-6A DEB, 60690 is space debris in LEO originally from a launch on Tue, 06 Aug 2024 UTC launched from the Taiyaun Space Center, China (TSC). Debris objects in space refer to the collection of defunct objects orbiting the Earth. Examples of debris include non-operational satellites, rocket bodies, and fragments generated from explosions, collisions, or faulty payload assembly.

Loading next visibility...
Identifier
60690, 2024-140CT
Orbit
LEO
Country
Flag of CNCN / PRC
Related business
Manufacturer
SAST
Mission
Spacecraft
Bus & Motor
Unknown
Mass
Unknown
Launch date (UTC)
2024-08-06 (2 years ago)
Launch vehicle
Unknown
Launch site
Taiyaun Space Center, China (TSC)
Object type
Payload
Rocket body
Debris
Shape & HBR
Unknown shape, 0.6 m
Radar Cross Section
Medium (>0.1 m² and <1 m²)

Expand to show TLE details & history
Last TLE update: 13 hours ago

TLE from 13 hours ago
0 CZ-6A DEB
1 60690U 24140CT  26171.31610595  .00000153  00000-0  70416-4 0  9990
2 60690  89.0152 276.0539 0065661 181.7980 178.2981 14.14857290 96145
Epoch: 2026-06-20T07:35Z
TLE epoch observation values (Epoch: 2026-06-20T07:35:11.554Z)
Latitude
-0.00008°
Longitude
-106.27672°
Altitude
893.246 km
Speed
7.381 km/s
True Right ascension
18h 24m 12s
True Declination
0° 00' 00"
Sunlit
Object was in full shadow at epoch
Visualization orbit readout
Latitude
Unknown
Longitude
Unknown
Altitude
Unknown
Speed
Unknown
Apparent Right ascension
Unknown
Apparent Declination
Unknown
Sunlit
N/A
Visualization observer readout
Local Sidereal Time
07:20:18
Azimuth
Unknown
Elevation
Unknown
Doppler factor
Unknown
Orbital elements
Apogee altitude
887.149 km
Perigee altitude
792.363 km
Semi-major axis
7,217.893 km
Eccentricity
0.00657
Inclination
89.0152°
RAAN
276.0539°
Arg. of periapsis
181.798°
True anomaly
178.32026°
Mean anomaly
178.2981°
Eccentric anomaly
178.3092°
Mean motion
3.53938 °/min
Orbital period
101.71 mins
BSTAR
0.000070416
Loading maneuver chart data...
Computing Atmospheric mass density...
Loading historical data...
Loading historical data...
Loading historical data...
Loading historical data...
Loading historical data...
Loading historical data...
Loading historical data...

Documentation

Showing up to 5 results
|